THOR ABLESTAR DEB, 122

Orbit data source: Space-Track

THOR ABLESTAR DEB, 122 is space debris in LEO originally from a launch on Thu, 29 Jun 1961 UTC launched from the Air Force Eastern Test Range (AFETR). Debris objects in space refer to the collection of defunct objects orbiting the Earth. Examples of debris include non-operational satellites, rocket bodies, and fragments generated from explosions, collisions, or faulty payload assembly.

Loading next visibility...
THOR ABLESTAR DEB details
Identifier
122, 1961-015G
Orbit
LEO
Last TLE update15 hours ago
Origin
Flag of USUSAF SSD (US)
ManufacturerUnknown
MissionSpacecraft
Bus & MotorUnknown
MassUnknown
Launch date (UTC)
1961-06-29 (64 years ago)
Launch vehicleUnknown
Launch site
Air Force Eastern Test Range (AFETR)
Object type
Payload
Rocket body
Debris
Shape & HBRUnknown
Radar Cross SectionMedium (>0.1 m² and <1 m²)

Expand to show TLE details & history

TLE from 15 hours ago
0 THOR ABLESTAR DEB
1 00122U 61015G   25014.90243668  .00009630  00000-0  10329-2 0  9993
2 00122  66.7435 244.3834 0055130 259.4752 100.0162 14.87881460316809
Epoch: 2025-01-14T21:39Z
Definitive object data (Epoch: 2025-01-14T21:39:30.529Z)
Latitude-0°
Longitude164.90373°
Altitude613.625 km
Speed7.549 km/s
True Right ascension16h 17m 32s
True Declination0° 00' 00"
Sunlit
Object was in daylight at TLE epoch
Visualization TLE readout
Latitude26.34897°
Longitude-29.13216°
Altitude618.525 km
Speed7.546 km/s
Apparent Right ascension02h 33m 34s
Apparent Declination-5° 10' 10"
Sunlit
Object is in full shadow
Visualization observer readout
Local Sidereal Time13:32:03
Azimuth334.225° NNW
Elevation-52.591°
Doppler factor1
Orbital elements
Apogee altitude641.368 km
Perigee altitude564.396 km
Semi-major axis6,981.019 km
Eccentricity0.005513
Inclination66.7435°
RAAN244.3834°
Arg. of periapsis259.4752°
True anomaly100.63756°
Mean anomaly100.0162°
Eccentric anomaly100.32695°
Mean motion3.72105 °/min
BSTAR0.0010329
Orbital period96.75 mins
Loading maneuver chart data...

THOR ABLESTAR DEB Visibility forecast

Observer location: undefined°, undefined

Span
Click to sort rows by Start time (UTC) header in descending order
Start Az.
Max El. time (UTC)
Max El. Az.
Max El.
End time (UTC)
End Az.
4 mins2025-01-15 15:32:37.102Z135.432° SSE2025-01-15 15:34:37.102Z107.267° ESE14.611°2025-01-15 15:36:37.102Z78.686° E
7 mins2025-01-15 17:10:37.102Z230.168° WSW2025-01-15 17:13:37.102Z303.358° NW39.165°2025-01-15 17:17:37.102Z18.959° NNE
7 mins2025-01-16 01:38:37.102Z343.095° N2025-01-16 01:41:37.102Z76.248° E41.314°2025-01-16 01:45:37.102Z140.089° SSE
|